Location: Monroe
(41.9160°N, 83.3980°W)
Time: 02:10:38
(UTC-04:00)

ISS - All Passes

Search period start: 30 August 2014 00:00
Search period end: 09 September 2014 00:00
Orbit: 414 x 419 km, 51.6° (Epoch: 29 August)

Date Brightness Start Highest point End Pass type
(mag) Time Alt. Az. Time Alt. Az. Time Alt. Az.
30 Aug - 10:37:11 10° SSE 10:39:11 15° SE 10:41:11 10° E daylight
30 Aug - 12:12:16 10° WSW 12:15:34 66° NNW 12:18:53 10° NE daylight
30 Aug - 13:50:19 10° WNW 13:52:47 19° NNW 13:55:16 10° NE daylight
30 Aug - 15:28:16 10° NW 15:30:28 16° N 15:32:39 10° NE daylight
30 Aug - 17:04:44 10° NW 17:07:53 38° NNE 17:11:02 10° E daylight
30 Aug - 18:41:37 10° WNW 18:44:33 29° SW 18:47:29 10° SSE daylight
31 Aug - 11:23:45 10° SW 11:27:04 74° SE 11:30:23 10° ENE daylight
31 Aug - 13:01:20 10° WNW 13:04:05 23° NNW 13:06:50 10° NE daylight
31 Aug - 14:39:37 10° NW 14:41:42 15° N 14:43:47 10° NE daylight
31 Aug - 16:16:20 10° NW 16:19:15 27° NNE 16:22:10 10° E daylight
31 Aug - 17:52:53 10° WNW 17:56:09 51° SW 17:59:23 10° SE daylight
01 Sep - 10:35:27 10° SSW 10:38:36 41° SE 10:41:45 10° ENE daylight
01 Sep - 12:12:24 10° W 12:15:24 30° NNW 12:18:24 10° NE daylight
01 Sep - 13:50:48 10° NW 13:52:54 16° N 13:55:01 10° NE daylight
01 Sep - 15:27:54 10° NW 15:30:33 21° NNE 15:33:11 10° ENE daylight
01 Sep - 17:04:18 10° NW 17:07:39 90° NNE 17:10:58 10° SE daylight
01 Sep - 18:43:03 10° WSW 18:43:53 11° SW 18:44:43 10° SW daylight
02 Sep - 09:47:26 10° S 09:50:10 24° SE 09:52:54 10° E daylight
02 Sep - 11:23:32 10° WSW 11:26:44 44° NNW 11:29:57 10° NE daylight
02 Sep - 13:01:50 10° NW 13:04:06 17° N 13:06:22 10° NE daylight
02 Sep - 14:39:24 10° NW 14:41:46 18° NNE 14:44:09 10° ENE daylight
02 Sep - 16:15:46 10° NW 16:19:03 54° NNE 16:22:20 10° ESE daylight
02 Sep - 17:53:07 10° W 17:55:32 19° SW 17:57:56 10° S daylight
03 Sep - 08:59:58 10° SSE 09:01:46 14° SE 09:03:34 10° E daylight
03 Sep - 10:34:47 10° WSW 10:38:06 71° NNW 10:41:26 10° NE daylight
03 Sep - 12:12:46 10° WNW 12:15:17 19° NNW 12:17:48 10° NE daylight
03 Sep - 13:50:47 10° NW 13:52:57 16° N 13:55:06 10° NE daylight
03 Sep - 15:27:16 10° NW 15:30:23 35° NNE 15:33:30 10° E daylight
03 Sep - 17:04:04 10° WNW 17:07:05 32° SW 17:10:05 10° SSE daylight
04 Sep - 09:46:12 10° SW 09:49:30 67° SE 09:52:49 10° ENE daylight
04 Sep - 11:23:42 10° WNW 11:26:29 24° NNW 11:29:16 10° NE daylight
04 Sep - 13:02:00 10° NW 13:04:04 15° N 13:06:09 10° NE daylight
04 Sep - 14:38:46 10° NW 14:41:38 26° NNE 14:44:30 10° E daylight
04 Sep - 16:15:17 10° WNW 16:18:33 57° SW 16:21:49 10° SE daylight
05 Sep - 08:57:50 10° SSW 09:00:56 37° SE 09:04:03 10° ENE daylight
05 Sep - 10:34:39 10° W 10:37:41 32° NNW 10:40:44 10° NE daylight
05 Sep - 12:13:03 10° NW 12:15:10 16° N 12:17:18 10° NE daylight
05 Sep - 13:50:13 10° NW 13:52:49 21° NNE 13:55:24 10° ENE daylight
05 Sep - 15:26:36 10° NW 15:29:56 83° NE 15:33:16 10° ESE daylight
05 Sep - 17:04:55 10° WSW 17:06:12 12° SW 17:07:30 10° SSW daylight
06 Sep - 08:09:47 10° S 08:12:24 22° SE 08:15:02 10° E daylight
06 Sep - 09:45:42 10° WSW 09:48:56 47° NNW 09:52:10 10° NE daylight
06 Sep - 11:23:57 10° NW 11:26:15 17° N 11:28:34 10° NE daylight
06 Sep - 13:01:36 10° NW 13:03:56 17° N 13:06:15 10° NE daylight
06 Sep - 14:37:59 10° NW 14:41:14 50° NNE 14:44:29 10° ESE daylight
06 Sep - 16:15:12 10° W 16:17:44 20° SW 16:20:16 10° S daylight
07 Sep - 07:22:23 10° SSE 07:23:54 13° SE 07:25:26 10° ESE daylight
07 Sep - 08:56:53 10° WSW 09:00:12 78° NW 09:03:32 10° NE daylight
07 Sep - 10:34:47 10° WNW 10:37:21 20° NNW 10:39:54 10° NE daylight
07 Sep - 12:12:51 10° NW 12:14:59 16° N 12:17:07 10° NE daylight
07 Sep - 13:49:22 10° NW 13:52:27 33° NNE 13:55:31 10° E daylight
07 Sep - 15:26:06 10° WNW 15:29:11 35° SW 15:32:14 10° SSE daylight
08 Sep - 08:08:14 10° SW 08:11:30 61° SE 08:14:48 10° ENE daylight
08 Sep - 09:45:36 10° WNW 09:48:26 25° NNW 09:51:17 10° NE daylight
08 Sep - 11:23:56 10° NW 11:26:00 15° N 11:28:05 10° NE daylight
08 Sep - 13:00:46 10° NW 13:03:35 25° NNE 13:06:24 10° ENE daylight
08 Sep - 14:37:14 10° WNW 14:40:32 63° SW 14:43:49 10° SE daylight
